Hlavní strana
METAR-TAF:

METAR-TAF

Letiště :

Edgar County Airport

Paris, Illinois, Spojené státy americké

zeměpisná šířka: 39-42-01N, zeměpisná délka: 087-40-11W, výška: 199 m

Aktuální stav počasí

Zpráva byla vytvořena před 22 minutami, v 10:15 UTC
Západoseverozápadní vítr 19 kt s nárazy do 22 kt
Teplota -5°C
Vlhkost vzduchu 79%
Tlak 1018 hPa
Viditelnost: 16.1 km
Oblačno až skoro zataženo ve výšce 1800 ft
Oblačno až skoro zataženo ve výšce 2300 ft

METAR: KPRG 101015Z AUTO 29019G22KT 10SM BKN018 BKN023 M05/M08 A3007 RMK AO2 T10521083

Čas: 04:37 (10:37 UTC)


TAF: chybějící

Stav a předpovědi počasí z více než 4 000 letišť (zprávy METAR a TAF).

Červené a žluté tečky na mapě představují dostupné meteorologické stanice.

Když kurzor umístíte na tečku, zobrazí se název stanice.

Pak kliknutím zobrazíte stav a předpověď počasí.

Chcete-li změnit mapu, kliknutím na zelené tlačítko se znaménkem +mapu přiblížíte, kliknutím na zelené tlačítko se znaménkem – mapu oddálíte a kliknutím na zelené šipky přejdete na sousední mapy.


METAR-TAF: